TimeAST,TemperatureF,Dew PointF,Humidity,Sea Level PressureIn,VisibilityMPH,Wind Direction,Wind SpeedMPH,Gust SpeedMPH,PrecipitationIn,Events,Conditions,WindDirDegrees,DateUTC
12:53 AM,77.0,70.0,79,30.12,10.0,East,13.8,20.7,N/A,,Partly Cloudy,80,2013-01-05 04:53:00
1:53 AM,77.0,69.1,76,30.11,10.0,ENE,9.2,17.3,N/A,,Partly Cloudy,70,2013-01-05 05:53:00
2:53 AM,77.0,69.1,76,30.09,10.0,ENE,13.8,20.7,N/A,,Scattered Clouds,60,2013-01-05 06:53:00
3:53 AM,77.0,70.0,79,30.10,10.0,East,10.4,20.7,N/A,,Overcast,80,2013-01-05 07:53:00
4:53 AM,77.0,69.1,76,30.10,10.0,East,8.1,-,N/A,,Mostly Cloudy,90,2013-01-05 08:53:00
5:53 AM,77.0,68.0,74,30.12,10.0,East,12.7,19.6,N/A,,Clear,80,2013-01-05 09:53:00
6:53 AM,77.0,69.1,76,30.14,10.0,ENE,10.4,19.6,N/A,,Clear,70,2013-01-05 10:53:00
7:53 AM,78.1,68.0,71,30.17,10.0,ENE,15.0,24.2,N/A,,Partly Cloudy,60,2013-01-05 11:53:00
8:53 AM,80.1,69.1,69,30.18,10.0,ENE,15.0,24.2,N/A,,Clear,60,2013-01-05 12:53:00
9:53 AM,82.0,69.1,65,30.19,10.0,ENE,12.7,21.9,N/A,,Scattered Clouds,60,2013-01-05 13:53:00
10:53 AM,82.0,70.0,67,30.18,10.0,ENE,17.3,24.2,N/A,,Partly Cloudy,60,2013-01-05 14:53:00
11:53 AM,82.9,69.1,63,30.16,10.0,NE,20.7,27.6,N/A,,Clear,50,2013-01-05 15:53:00
12:53 PM,82.0,70.0,67,30.14,10.0,NE,21.9,27.6,N/A,,Scattered Clouds,50,2013-01-05 16:53:00
1:53 PM,84.0,68.0,58,30.12,10.0,NE,19.6,27.6,N/A,,Scattered Clouds,50,2013-01-05 17:53:00
2:53 PM,84.0,71.1,65,30.10,10.0,ENE,12.7,23.0,N/A,,Scattered Clouds,60,2013-01-05 18:53:00
3:53 PM,82.0,69.1,65,30.09,10.0,NE,15.0,23.0,N/A,,Partly Cloudy,50,2013-01-05 19:53:00
4:53 PM,81.0,69.1,67,30.09,10.0,East,19.6,28.8,N/A,,Clear,90,2013-01-05 20:53:00
5:53 PM,79.0,68.0,69,30.10,10.0,ENE,17.3,26.5,N/A,,Clear,70,2013-01-05 21:53:00
6:53 PM,79.0,70.0,74,30.11,10.0,East,18.4,25.3,N/A,,Partly Cloudy,80,2013-01-05 22:53:00
7:53 PM,79.0,70.0,74,30.13,10.0,ENE,13.8,21.9,N/A,,Partly Cloudy,70,2013-01-05 23:53:00
8:53 PM,78.1,69.1,74,30.14,10.0,East,11.5,20.7,N/A,,Clear,80,2013-01-06 00:53:00
9:53 PM,78.1,68.0,71,30.14,10.0,East,13.8,-,N/A,,Clear,90,2013-01-06 01:53:00
10:53 PM,78.1,68.0,71,30.14,10.0,East,15.0,23.0,N/A,,Partly Cloudy,90,2013-01-06 02:53:00
11:53 PM,78.1,68.0,71,30.13,10.0,East,13.8,21.9,N/A,,Partly Cloudy,100,2013-01-06 03:53:00